Time,TemperatureF,DewpointF,PressureIn,WindDirection,WindDirectionDegrees,WindSpeedMPH,WindSpeedGustMPH,Humidity,HourlyPrecipIn,Conditions,Clouds,dailyrainin,SoftwareType,DateUTC
2013-06-27 00:01:00,48.7,29.0,29.98,SW,221,1.0,1.0,47,0.00,,,0.00,weatherlink.com 1.10,2013-06-27 06:01:00,
2013-06-27 00:16:00,47.9,29.0,29.98,SSW,203,0.0,1.0,48,0.00,,,0.00,weatherlink.com 1.10,2013-06-27 06:16:00,
2013-06-27 00:31:00,46.9,29.0,29.98,SSW,203,0.0,0.0,51,0.00,,,0.00,weatherlink.com 1.10,2013-06-27 06:31:00,
2013-06-27 00:46:00,46.3,29.0,29.98,SSW,203,0.0,0.0,51,0.00,,,0.00,weatherlink.com 1.10,2013-06-27 06:46:00,
2013-06-27 01:01:00,46.2,30.0,29.98,WSW,243,0.0,1.0,53,0.00,,,0.00,weatherlink.com 1.10,2013-06-27 07:01:00,
2013-06-27 01:16:00,45.3,29.0,29.98,WSW,243,0.0,1.0,54,0.00,,,0.00,weatherlink.com 1.10,2013-06-27 07:16:00,
2013-06-27 01:31:00,44.8,31.0,29.98,SSW,198,0.0,1.0,59,0.00,,,0.00,weatherlink.com 1.10,2013-06-27 07:31:00,
2013-06-27 01:46:00,44.4,30.0,29.98,SSW,193,0.0,0.0,58,0.00,,,0.00,weatherlink.com 1.10,2013-06-27 07:46:00,
2013-06-27 02:01:00,45.0,32.0,29.98,SSW,198,0.0,1.0,60,0.00,,,0.00,weatherlink.com 1.10,2013-06-27 08:01:00,
2013-06-27 02:16:00,44.4,32.0,29.98,SSW,198,0.0,0.0,62,0.00,,,0.00,weatherlink.com 1.10,2013-06-27 08:16:00,
2013-06-27 02:31:00,43.9,31.0,29.98,SW,230,0.0,2.0,61,0.00,,,0.00,weatherlink.com 1.10,2013-06-27 08:31:00,
2013-06-27 02:46:00,43.9,31.0,29.99,WSW,247,0.0,2.0,60,0.00,,,0.00,weatherlink.com 1.10,2013-06-27 08:46:00,
2013-06-27 03:01:00,43.7,32.0,29.99,South,188,0.0,2.0,64,0.00,,,0.00,weatherlink.com 1.10,2013-06-27 09:01:00,
2013-06-27 03:16:00,43.4,32.0,29.99,WSW,256,2.0,2.0,64,0.00,,,0.00,weatherlink.com 1.10,2013-06-27 09:16:00,
2013-06-27 03:31:00,42.9,31.0,30.00,WSW,254,0.0,1.0,63,0.00,,,0.00,weatherlink.com 1.10,2013-06-27 09:31:00,
2013-06-27 03:46:00,42.3,32.0,30.00,SSE,157,0.0,1.0,67,0.00,,,0.00,weatherlink.com 1.10,2013-06-27 09:46:00,
2013-06-27 04:01:00,42.1,32.0,30.01,WSW,243,1.0,2.0,67,0.00,,,0.00,weatherlink.com 1.10,2013-06-27 10:01:00,
2013-06-27 04:16:00,41.8,31.0,30.01,West,262,0.0,1.0,65,0.00,,,0.00,weatherlink.com 1.10,2013-06-27 10:16:00,
2013-06-27 04:31:00,41.2,32.0,30.01,West,262,0.0,1.0,69,0.00,,,0.00,weatherlink.com 1.10,2013-06-27 10:31:00,
2013-06-27 04:46:00,40.5,32.0,30.02,West,261,0.0,1.0,71,0.00,,,0.00,weatherlink.com 1.10,2013-06-27 10:46:00,
2013-06-27 05:01:00,40.2,31.0,30.02,West,261,0.0,1.0,71,0.00,,,0.00,weatherlink.com 1.10,2013-06-27 11:01:00,
2013-06-27 05:16:00,39.9,30.0,30.02,West,260,1.0,1.0,69,0.00,,,0.00,weatherlink.com 1.10,2013-06-27 11:16:00,
2013-06-27 05:31:00,39.3,31.0,30.02,West,260,0.0,1.0,71,0.00,,,0.00,weatherlink.com 1.10,2013-06-27 11:31:00,
2013-06-27 05:46:00,38.9,31.0,30.02,West,260,0.0,1.0,73,0.00,,,0.00,weatherlink.com 1.10,2013-06-27 11:46:00,
2013-06-27 06:02:00,38.7,31.0,30.03,West,259,1.0,1.0,74,0.00,,,0.00,weatherlink.com 1.10,2013-06-27 12:02:00,
2013-06-27 06:17:00,38.5,31.0,30.03,WSW,258,1.0,1.0,75,0.00,,,0.00,weatherlink.com 1.10,2013-06-27 12:17:00,
2013-06-27 06:32:00,38.8,31.0,30.03,WSW,257,1.0,1.0,73,0.00,,,0.00,weatherlink.com 1.10,2013-06-27 12:32:00,
2013-06-27 06:47:00,39.4,31.0,30.04,WSW,257,0.0,1.0,73,0.00,,,0.00,weatherlink.com 1.10,2013-06-27 12:47:00,
2013-06-27 07:02:00,40.1,32.0,30.03,WSW,257,0.0,1.0,74,0.00,,,0.00,weatherlink.com 1.10,2013-06-27 13:02:00,
2013-06-27 07:17:00,42.1,34.0,30.04,WSW,257,0.0,1.0,72,0.00,,,0.00,weatherlink.com 1.10,2013-06-27 13:17:00,
2013-06-27 07:32:00,43.9,35.0,30.04,WSW,257,0.0,1.0,71,0.00,,,0.00,weatherlink.com 1.10,2013-06-27 13:32:00,
2013-06-27 07:47:00,45.6,36.0,30.04,WSW,257,0.0,0.0,70,0.00,,,0.00,weatherlink.com 1.10,2013-06-27 13:47:00,
2013-06-27 08:02:00,48.4,38.0,30.03,WSW,256,0.0,1.0,68,0.00,,,0.00,weatherlink.com 1.10,2013-06-27 14:02:00,
2013-06-27 08:17:00,51.1,38.0,30.03,WSW,255,0.0,0.0,61,0.00,,,0.00,weatherlink.com 1.10,2013-06-27 14:17:00,
2013-06-27 08:32:00,54.9,36.0,30.02,East,101,1.0,2.0,49,0.00,,,0.00,weatherlink.com 1.10,2013-06-27 14:32:00,
2013-06-27 08:47:00,59.2,36.0,30.02,ESE,107,0.0,3.0,42,0.00,,,0.00,weatherlink.com 1.10,2013-06-27 14:47:00,
2013-06-27 09:02:00,62.2,36.0,30.02,ESE,108,2.0,5.0,38,0.00,,,0.00,weatherlink.com 1.10,2013-06-27 15:02:00,
2013-06-27 09:17:00,64.1,36.0,30.01,ESE,111,0.0,6.0,35,0.00,,,0.00,weatherlink.com 1.10,2013-06-27 15:17:00,
2013-06-27 09:32:00,66.2,36.0,30.01,ESE,111,4.0,5.0,33,0.00,,,0.00,weatherlink.com 1.10,2013-06-27 15:32:00,
2013-06-27 09:47:00,67.8,35.0,30.00,ESE,108,1.0,6.0,30,0.00,,,0.00,weatherlink.com 1.10,2013-06-27 15:47:00,
2013-06-27 10:02:00,69.3,36.0,30.00,ESE,111,2.0,7.0,30,0.00,,,0.00,weatherlink.com 1.10,2013-06-27 16:02:00,
2013-06-27 10:17:00,71.1,36.0,30.00,ESE,104,3.0,6.0,28,0.00,,,0.00,weatherlink.com 1.10,2013-06-27 16:17:00,
2013-06-27 10:32:00,72.8,35.0,29.99,ESE,103,1.0,7.0,25,0.00,,,0.00,weatherlink.com 1.10,2013-06-27 16:32:00,
2013-06-27 10:47:00,74.3,36.0,29.99,ENE,75,4.0,8.0,25,0.00,,,0.00,weatherlink.com 1.10,2013-06-27 16:47:00,
2013-06-27 11:03:00,75.3,37.0,29.98,South,189,2.0,8.0,25,0.00,,,0.00,weatherlink.com 1.10,2013-06-27 17:03:00,
2013-06-27 11:18:00,76.4,35.0,29.98,ESE,118,3.0,9.0,22,0.00,,,0.00,weatherlink.com 1.10,2013-06-27 17:18:00,
2013-06-27 11:33:00,76.7,33.0,29.98,ESE,104,5.0,9.0,20,0.00,,,0.00,weatherlink.com 1.10,2013-06-27 17:33:00,
2013-06-27 11:48:00,77.5,35.0,29.97,ESE,106,1.0,11.0,21,0.00,,,0.00,weatherlink.com 1.10,2013-06-27 17:48:00,
2013-06-27 12:03:00,78.7,36.0,29.97,ESE,115,1.0,6.0,21,0.00,,,0.00,weatherlink.com 1.10,2013-06-27 18:03:00,
2013-06-27 12:18:00,79.2,32.0,29.97,East,79,2.0,10.0,18,0.00,,,0.00,weatherlink.com 1.10,2013-06-27 18:18:00,
2013-06-27 12:33:00,78.9,30.0,29.96,East,101,2.0,9.0,17,0.00,,,0.00,weatherlink.com 1.10,2013-06-27 18:33:00,
2013-06-27 12:48:00,80.3,33.0,29.95,ENE,76,3.0,10.0,18,0.00,,,0.00,weatherlink.com 1.10,2013-06-27 18:48:00,
2013-06-27 13:03:00,80.5,29.0,29.95,ESE,106,0.0,10.0,15,0.00,,,0.00,weatherlink.com 1.10,2013-06-27 19:03:00,
2013-06-27 13:18:00,81.5,35.0,29.94,East,101,3.0,8.0,19,0.00,,,0.00,weatherlink.com 1.10,2013-06-27 19:18:00,
2013-06-27 13:33:00,80.8,29.0,29.94,SE,137,2.0,10.0,15,0.00,,,0.00,weatherlink.com 1.10,2013-06-27 19:33:00,
2013-06-27 13:48:00,81.7,33.0,29.93,ESE,103,1.0,8.0,17,0.00,,,0.00,weatherlink.com 1.10,2013-06-27 19:48:00,
2013-06-27 14:03:00,81.8,24.0,29.93,ESE,110,4.0,9.0,12,0.00,,,0.00,weatherlink.com 1.10,2013-06-27 20:03:00,
2013-06-27 14:18:00,78.5,24.0,29.93,North,352,3.0,7.0,13,0.00,,,0.00,weatherlink.com 1.10,2013-06-27 20:18:00,
2013-06-27 14:33:00,80.4,25.0,29.92,East,82,3.0,5.0,13,0.00,,,0.00,weatherlink.com 1.10,2013-06-27 20:33:00,
2013-06-27 14:48:00,83.6,28.0,29.92,ENE,60,2.0,8.0,13,0.00,,,0.00,weatherlink.com 1.10,2013-06-27 20:48:00,
2013-06-27 15:03:00,83.5,33.0,29.91,SE,124,4.0,12.0,16,0.00,,,0.00,weatherlink.com 1.10,2013-06-27 21:03:00,
2013-06-27 15:18:00,83.6,31.0,29.91,East,79,9.0,11.0,15,0.00,,,0.00,weatherlink.com 1.10,2013-06-27 21:18:00,
2013-06-27 15:33:00,83.8,26.0,29.89,ESE,105,3.0,5.0,12,0.00,,,0.00,weatherlink.com 1.10,2013-06-27 21:33:00,
2013-06-27 15:48:00,83.5,26.0,29.89,ESE,107,3.0,10.0,12,0.00,,,0.00,weatherlink.com 1.10,2013-06-27 21:48:00,
2013-06-27 16:03:00,83.9,30.0,29.88,East,101,4.0,9.0,14,0.00,,,0.00,weatherlink.com 1.10,2013-06-27 22:03:00,
2013-06-27 16:18:00,83.7,24.0,29.88,ESE,108,7.0,10.0,11,0.00,,,0.00,weatherlink.com 1.10,2013-06-27 22:18:00,
2013-06-27 16:33:00,83.1,25.0,29.88,East,82,8.0,10.0,12,0.00,,,0.00,weatherlink.com 1.10,2013-06-27 22:33:00,
2013-06-27 17:04:00,82.8,25.0,29.87,ESE,106,1.0,9.0,12,0.00,,,0.00,weatherlink.com 1.10,2013-06-27 23:04:00,
2013-06-27 17:19:00,81.3,20.0,29.87,ESE,107,3.0,7.0,10,0.00,,,0.00,weatherlink.com 1.10,2013-06-27 23:19:00,
2013-06-27 17:34:00,80.1,25.0,29.87,East,99,0.0,5.0,13,0.00,,,0.00,weatherlink.com 1.10,2013-06-27 23:34:00,
2013-06-27 18:04:00,77.5,31.0,29.89,East,89,0.0,3.0,18,0.00,,,0.00,weatherlink.com 1.10,2013-06-28 00:04:00,
2013-06-27 18:34:00,76.3,28.0,29.89,East,101,4.0,5.0,17,0.00,,,0.00,weatherlink.com 1.10,2013-06-28 00:34:00,
2013-06-27 18:49:00,75.1,29.0,29.91,ENE,66,0.0,10.0,18,0.00,,,0.00,weatherlink.com 1.10,2013-06-28 00:49:00,
2013-06-27 19:19:00,73.1,32.0,29.94,ESE,115,0.0,21.0,22,0.00,,,0.00,weatherlink.com 1.10,2013-06-28 01:19:00,
2013-06-27 19:34:00,70.7,32.0,29.93,SE,127,10.0,25.0,24,0.00,,,0.00,weatherlink.com 1.10,2013-06-28 01:34:00,
2013-06-27 19:49:00,68.6,33.0,29.93,ESE,103,0.0,12.0,27,0.00,,,0.00,weatherlink.com 1.10,2013-06-28 01:49:00,
2013-06-27 20:05:00,68.7,32.0,29.94,NNE,16,0.0,4.0,26,0.00,,,0.00,weatherlink.com 1.10,2013-06-28 02:05:00,
2013-06-27 20:19:00,68.4,33.0,29.96,ESE,102,0.0,1.0,27,0.00,,,0.00,weatherlink.com 1.10,2013-06-28 02:19:00,
2013-06-27 20:49:00,65.6,33.0,29.97,SSE,160,0.0,1.0,30,0.00,,,0.00,weatherlink.com 1.10,2013-06-28 02:49:00,
2013-06-27 21:04:00,64.5,33.0,29.98,SSE,160,0.0,0.0,31,0.00,,,0.00,weatherlink.com 1.10,2013-06-28 03:04:00,
2013-06-27 21:19:00,63.5,34.0,29.98,SSE,160,0.0,0.0,33,0.00,,,0.00,weatherlink.com 1.10,2013-06-28 03:19:00,
2013-06-27 21:34:00,62.5,34.0,29.98,SSE,160,0.0,0.0,34,0.00,,,0.00,weatherlink.com 1.10,2013-06-28 03:34:00,
2013-06-27 21:49:00,61.3,33.0,29.98,SSE,160,0.0,0.0,35,0.00,,,0.00,weatherlink.com 1.10,2013-06-28 03:49:00,
2013-06-27 22:04:00,60.0,33.0,29.99,SSE,165,0.0,0.0,37,0.00,,,0.00,weatherlink.com 1.10,2013-06-28 04:04:00,
2013-06-27 22:19:00,58.9,33.0,29.98,SSE,165,0.0,0.0,38,0.00,,,0.00,weatherlink.com 1.10,2013-06-28 04:19:00,
2013-06-27 22:34:00,57.3,34.0,29.98,SSE,165,0.0,0.0,41,0.00,,,0.00,weatherlink.com 1.10,2013-06-28 04:34:00,
2013-06-27 22:49:00,56.2,32.0,29.98,SW,221,0.0,1.0,40,0.00,,,0.00,weatherlink.com 1.10,2013-06-28 04:49:00,
2013-06-27 23:04:00,56.3,33.0,29.99,West,279,0.0,3.0,41,0.00,,,0.00,weatherlink.com 1.10,2013-06-28 05:04:00,
2013-06-27 23:19:00,55.1,33.0,29.99,West,279,0.0,1.0,43,0.00,,,0.00,weatherlink.com 1.10,2013-06-28 05:19:00,
2013-06-27 23:34:00,54.4,33.0,29.99,West,279,0.0,1.0,44,0.00,,,0.00,weatherlink.com 1.10,2013-06-28 05:34:00,
2013-06-27 23:49:00,53.8,33.0,29.99,West,278,0.0,1.0,45,0.00,,,0.00,weatherlink.com 1.10,2013-06-28 05:49:00,